Location: Street
(51.1247°N, 2.7429°W)
Time: 10:32:57
(UTC+01:00)

STRAND 1 - Pass Details

Date: 24 April 2024
Orbit: 766 x 777 km, 98.4° (Epoch: 29 May)

Event Time Altitude Azimuth Distance (km) Brightness Sun altitude
Rises 21:31:27 0° 5° (N) 3,251 ? -10.2°
Reaches altitude 10° 21:34:24 10° 347° (NNW) 2,322 ? -10.6°
Maximum altitude 21:37:49 18° 305° (NW) 1,803 ? -11.0°
Drops below altitude 10° 21:41:14 10° 263° (W) 2,317 ? -11.4°
Sets 21:44:10 0° 245° (WSW) 3,242 ? -11.8°
